Tracking 25710 objects as of 5-Jul-2022
HD Live streaming from Space Station
objects crossing your sky now

FENGYUN 1C DEB

Track FENGYUN 1C DEB now!
10-day predictions


NORAD ID: 29851
Int'l Code: 1999-025EV
Perigee: 858.1 km
Apogee: 1,069.1 km
Inclination: 99.7 °
Period: 104.2 minutes
Semi major axis: 7334 km
RCS: 0.0808 m2 (small)
Launch date: May 10, 1999
Source: People's Republic of China (PRC)
Launch site: Taiyaun Space Center, China (TSC)

Note: This is SATELLITE DEBRIS
aabbcc
Your satellite tracking list
Your tracking list is empty




NASA's NSSDC Master Catalog

Two Line Element Set (TLE):
1 29851U 99025EV  22185.94815979  .00000131  00000-0  15424-3 0  9994
2 29851  99.6510 181.0617 0143837 294.8475  92.3311 13.82106805779978
Source of the keplerian elements: AFSPC